User: anonymous   Login
Location: Unspecified
(0.0000°N, 0.0000°E)
Time: 03:31:37
(UTC+00:00)
Language:

GALILEO-FM3 - Orbit

View from above orbital plane
View from above orbital plane
View from above satellite
View from above satellite

Ground track
Ground track

The orbit data is extracted from the following two-line orbital elements,

1 38857U 12055A   17347.75080731  .00000083  00000-0  00000+0 0  9997
2 38857  54.9044 187.0640 0001513 218.8513 141.2078  1.70473844 32199
Epoch (UTC): 13 December 2017 18:01:09
Eccentricity: 0.0001513
inclination: 54.9044°
perigee height: 23217 km
apogee height: 23226 km
right ascension of ascending node: 187.0640°
argument of perigee: 218.8513°
revolutions per day: 1.70473844
mean anomaly at epoch: 141.2078°
orbit number at epoch: 3219

The dashed part of the orbit path shows where the satellite is in the earth's shadow,  

DLR